| time (UTC) | temp F | wind direction | speed MPH | gust MPH | rain 1hr in | rain 24hr in | rain mn in | humidity % | barometer mb |
| 20260503034512 | 41 | 231 | 3.0 | 7.0 | 0.00 | 0.00 | 0.00 | 69 | 1012.7 |
| 20260503033013 | 42 | 234 | 3.0 | 5.0 | 0.00 | 0.00 | 0.00 | 66 | 1012.8 |
| 20260503031510 | 42 | 314 | 4.0 | 10.0 | 0.00 | 0.00 | 0.00 | 64 | 1012.9 |
| 20260503030011 | 42 | 269 | 3.0 | 9.0 | 0.00 | 0.00 | 0.00 | 65 | 1012.9 |
| 20260503024508 | 42 | 259 | 3.0 | 7.0 | 0.00 | 0.01 | 0.00 | 63 | 1013.0 |
| 20260503023007 | 42 | 264 | 4.0 | 9.0 | 0.00 | 0.01 | 0.00 | 65 | 1013.2 |
| 20260503021515 | 42 | 260 | 3.0 | 7.0 | 0.00 | 0.01 | 0.00 | 68 | 1013.3 |
| 20260503020004 | 42 | 232 | 3.0 | 7.0 | 0.00 | 0.01 | 0.00 | 69 | 1013.3 |
| 20260503014501 | 42 | 256 | 3.0 | 7.0 | 0.00 | 0.01 | 0.00 | 71 | 1013.2 |
| 20260503013001 | 42 | 213 | 3.0 | 6.0 | 0.00 | 0.01 | 0.00 | 71 | 1013.2 |
| 20260503011501 | 42 | 253 | 5.0 | 8.0 | 0.00 | 0.01 | 0.00 | 71 | 1013.2 |
| 20260503010100 | 42 | 230 | 4.0 | 8.0 | 0.00 | 0.01 | 0.00 | 71 | 1013.1 |
| 20260503004605 | 42 | 238 | 2.0 | 5.0 | 0.00 | 0.01 | 0.00 | 71 | 1013.0 |
| 20260503003103 | 42 | 247 | 1.0 | 8.0 | 0.00 | 0.01 | 0.00 | 71 | 1012.9 |
| 20260503001558 | 42 | 257 | 4.0 | 9.0 | 0.00 | 0.01 | 0.00 | 71 | 1012.8 |
| 20260503000104 | 42 | 234 | 5.0 | 9.0 | 0.00 | 0.01 | 0.00 | 71 | 1012.7 |
| 20260502234610 | 43 | 246 | 3.0 | 9.0 | 0.00 | 0.01 | 0.00 | 70 | 1012.6 |
| 20260502233054 | 43 | 240 | 5.0 | 11.0 | 0.00 | 0.01 | 0.00 | 70 | 1012.7 |
| 20260502231553 | 43 | 243 | 4.0 | 11.0 | 0.00 | 0.01 | 0.00 | 70 | 1012.5 |
| 20260502230053 | 43 | 250 | 4.0 | 8.0 | 0.00 | 0.01 | 0.00 | 70 | 1012.6 |
| 20260502224552 | 43 | 251 | 6.0 | 10.0 | 0.00 | 0.01 | 0.00 | 70 | 1012.6 |
| 20260502223100 | 42 | 234 | 6.0 | 10.0 | 0.00 | 0.01 | 0.00 | 69 | 1012.6 |
| 20260502221554 | 42 | 250 | 7.0 | 12.0 | 0.00 | 0.01 | 0.00 | 70 | 1012.6 |
| 20260502221548 | 42 | 252 | 7.0 | 12.0 | 0.00 | 0.01 | 0.00 | 70 | 1012.6 |
| 20260502220056 | 42 | 240 | 4.0 | 12.0 | 0.00 | 0.01 | 0.00 | 69 | 1012.6 |
| 20260502214608 | 43 | 234 | 4.0 | 15.0 | 0.00 | 0.01 | 0.00 | 66 | 1012.6 |
| 20260502213103 | 45 | 239 | 6.0 | 15.0 | 0.00 | 0.01 | 0.00 | 59 | 1012.4 |
| 20260502211547 | 45 | 278 | 7.0 | 11.0 | 0.00 | 0.01 | 0.00 | 55 | 1012.4 |
| 20260502210041 | 45 | 296 | 7.0 | 12.0 | 0.00 | 0.01 | 0.00 | 54 | 1012.3 |
| 20260502204542 | 45 | 269 | 7.0 | 12.0 | 0.00 | 0.02 | 0.00 | 57 | 1012.3 |
| 20260502203104 | 45 | 296 | 6.0 | 12.0 | 0.00 | 0.02 | 0.00 | 58 | 1012.4 |
| 20260502201542 | 45 | 269 | 6.0 | 13.0 | 0.00 | 0.02 | 0.00 | 60 | 1012.4 |
| 20260502200044 | 44 | 316 | 8.0 | 17.0 | 0.00 | 0.02 | 0.00 | 62 | 1012.5 |
| 20260502194536 | 45 | 272 | 10.0 | 18.0 | 0.00 | 0.05 | 0.00 | 61 | 1012.5 |
| 20260502193008 | 45 | 321 | 8.0 | 13.0 | 0.00 | 0.05 | 0.00 | 62 | 1012.6 |
| 20260502191506 | 45 | 288 | 7.0 | 13.0 | 0.00 | 0.05 | 0.00 | 64 | 1012.7 |
| 20260502190004 | 44 | 262 | 8.0 | 17.0 | 0.00 | 0.05 | 0.00 | 64 | 1012.7 |
| 20260502184502 | 45 | 311 | 9.0 | 14.0 | 0.00 | 0.06 | 0.00 | 61 | 1012.6 |
| 20260502183002 | 45 | 342 | 9.0 | 15.0 | 0.00 | 0.06 | 0.00 | 60 | 1012.6 |
| 20260502181502 | 45 | 327 | 10.0 | 17.0 | 0.00 | 0.06 | 0.00 | 61 | 1012.6 |
| 20260502163108 | 45 | 317 | 7.0 | 16.0 | 0.00 | 0.07 | 0.00 | 54 | 1012.5 |
| 20260502161613 | 45 | 269 | 11.0 | 20.0 | 0.00 | 0.07 | 0.00 | 53 | 1012.5 |
| 20260502151541 | 44 | 298 | 10.0 | 20.0 | 0.00 | 0.07 | 0.00 | 53 | 1012.9 |
| 20260502123002 | 39 | 229 | 5.0 | 9.0 | 0.00 | 0.07 | 0.00 | 81 | 1013.3 |
| 20260502121600 | 38 | 256 | 5.0 | 10.0 | 0.00 | 0.07 | 0.00 | 82 | 1013.3 |
| 20260502120108 | 38 | 219 | 5.0 | 12.0 | 0.00 | 0.07 | 0.00 | 85 | 1013.3 |
| 20260502114547 | 37 | 252 | 6.0 | 11.0 | 0.00 | 0.07 | 0.00 | 87 | 1013.4 |
| 20260502113048 | 37 | 263 | 5.0 | 10.0 | 0.00 | 0.07 | 0.00 | 88 | 1013.4 |
| 20260502111543 | 36 | 234 | 4.0 | 12.0 | 0.00 | 0.07 | 0.00 | 88 | 1013.3 |
| 20260502110031 | 35 | 235 | 5.0 | 12.0 | 0.00 | 0.07 | 0.00 | 89 | 1013.2 |
| 20260502104529 | 35 | 232 | 3.0 | 5.0 | 0.00 | 0.07 | 0.00 | 89 | 1013.0 |
| 20260502103023 | 35 | 228 | 3.0 | 7.0 | 0.00 | 0.07 | 0.00 | 90 | 1012.9 |
| 20260502101520 | 34 | 243 | 3.0 | 7.0 | 0.00 | 0.07 | 0.00 | 89 | 1012.8 |
| 20260502091510 | 35 | 247 | 1.0 | 5.0 | 0.00 | 0.07 | 0.00 | 87 | 1012.4 |
| 20260502070104 | 39 | 258 | 6.0 | 10.0 | 0.00 | 0.07 | 0.00 | 81 | 1011.5 |
| 20260502064550 | 39 | 292 | 5.0 | 10.0 | 0.00 | 0.07 | 0.00 | 81 | 1011.7 |
| 20260502063042 | 39 | 256 | 6.0 | 11.0 | 0.00 | 0.07 | 0.00 | 81 | 1011.7 |
| 20260502061540 | 40 | 302 | 4.0 | 16.0 | 0.00 | 0.07 | 0.00 | 82 | 1011.8 |
| 20260502060037 | 40 | 336 | 8.0 | 11.0 | 0.00 | 0.07 | 0.00 | 84 | 1011.8 |
| 20260502054535 | 41 | 313 | 8.0 | 13.0 | 0.00 | 0.07 | 0.00 | 86 | 1011.6 |
| 20260502053032 | 41 | 254 | 3.0 | 7.0 | 0.00 | 0.07 | 0.00 | 89 | 1011.3 |
| 20260502051534 | 40 | 223 | 2.0 | 4.0 | 0.00 | 0.07 | 0.00 | 89 | 1011.3 |
| 20260502050026 | 40 | 261 | 1.0 | 3.0 | 0.00 | 0.07 | 0.00 | 90 | 1011.4 |
| 20260502044522 | 40 | 261 | 0.0 | 2.0 | 0.00 | 0.07 | 0.00 | 89 | 1011.3 |
| 20260502043024 | 40 | 261 | 0.0 | 2.0 | 0.00 | 0.07 | 0.00 | 89 | 1011.3 |
| 20260502041522 | 40 | 261 | 1.0 | 3.0 | 0.00 | 0.07 | 0.00 | 89 | 1011.4 |
| 20260502040016 | 40 | 264 | 2.0 | 4.0 | 0.00 | 0.07 | 0.00 | 89 | 1011.5 |